Location: Saint-Hippolyte
(43.6394°N, 4.7559°E)
Time: 16:04:57
(UTC+00:00)

Cosmos 2263 Rocket - Pass Details

Date: 24 October 2020
Orbit: 822 x 850 km, 71.0° (Epoch: 23 November)

Event Time Altitude Azimuth Distance (km) Brightness Sun altitude
Rises 18:18:19 0° 347° (NNW) 3,418 5.5 -17.9°
Reaches altitude 10° 18:22:40 10° 18° (NNE) 2,482 4.5 -18.7°
Enters shadow 18:24:09 12° 33° (NNE) 2,358 4.2 -19.0°
